When you browse on this site, cookies collect data to enhance your experience and personalize the content and advertising you see.
Visit our Privacy Policy to learn more. By continuing to use the site, you agree to this use of cookies and data.
  • In Romania
  • List of Countries
  • For 7 days
  • Water Temperature
  • Satellite Maps
  • Weather Map
  • Weather Widgets
  • user-avatar
    Login

    Hourly Weather Bakhtaran

    Today, 20 January, Sunday

    Time Temperature Precipitation Wind Pressure Humidity
    00:00 -3°C° 0 mm 0 mps 637 mmHg 65%
    01:00 -3°C° 0 mm 0 mps 637 mmHg 66%
    02:00 -3°C° 0 mm 0 mps 637 mmHg 66%
    03:00 -3°C° 0 mm 1 mps 636 mmHg 71%
    04:00 -4°C° 0 mm 0 mps 636 mmHg 71%
    05:00 -4°C° 0 mm 0 mps 636 mmHg 71%
    06:00 -4°C° 0 mm 0 mps 636 mmHg 71%
    07:00 -3°C° 0 mm 0 mps 637 mmHg 67%
    08:00 -2°C° 0 mm 0 mps 637 mmHg 62%
    09:00 0°C° 0 mm 1 mps 638 mmHg 57%
    10:00 0°C° 0 mm 0 mps 638 mmHg 52%
    11:00 +1°C° 0 mm 0 mps 638 mmHg 47%
    12:00 +2°C° 0 mm 0 mps 638 mmHg 42%
    13:00 +2°C° 0 mm 0 mps 638 mmHg 40%
    14:00 +3°C° 0 mm 0 mps 638 mmHg 38%
    15:00 +3°C° 0 mm 0 mps 638 mmHg 39%
    16:00 +2°C° 0 mm 0 mps 637 mmHg 44%
    17:00 0°C° 0 mm 0 mps 637 mmHg 48%
    18:00 -1°C° 0 mm 0 mps 636 mmHg 52%
    19:00 -1°C° 0 mm 0 mps 636 mmHg 53%
    20:00 -1°C° 0 mm 0 mps 636 mmHg 54%
    21:00 -2°C° 0 mm 0 mps 637 mmHg 55%
    22:00 -2°C° 0 mm 0 mps 637 mmHg 55%
    23:00 -2°C° 0 mm 0 mps 637 mmHg 55%

    Tomorrow, 21 January, Monday

    Time Temperature Precipitation Wind Pressure Humidity
    00:00 -2°C° 0 mm 0 mps 637 mmHg 56%
    01:00 -2°C° 0 mm 0 mps 637 mmHg 56%
    02:00 -2°C° 0 mm 0 mps 636 mmHg 56%
    03:00 -1°C° 0 mm 1 mps 636 mmHg 56%
    04:00 -1°C° 0 mm 1 mps 636 mmHg 56%
    05:00 -1°C° 0 mm 1 mps 636 mmHg 55%
    06:00 -1°C° 0 mm 1 mps 636 mmHg 55%
    07:00 0°C° 0 mm 1 mps 637 mmHg 51%
    08:00 +1°C° 0 mm 1 mps 637 mmHg 47%
    09:00 +2°C° 0 mm 1 mps 638 mmHg 43%
    10:00 +3°C° 0 mm 1 mps 638 mmHg 39%
    11:00 +3°C° 0 mm 0 mps 637 mmHg 35%
    12:00 +5°C° 0 mm 0 mps 637 mmHg 31%
    13:00 +5°C° 0 mm 0 mps 637 mmHg 31%
    14:00 +5°C° 0 mm 0 mps 637 mmHg 31%
    15:00 +6°C° 0 mm 0 mps 636 mmHg 31%
    16:00 +4°C° 0 mm 0 mps 636 mmHg 35%
    17:00 +3°C° 0 mm 0 mps 635 mmHg 39%
    18:00 +1°C° 0 mm 0 mps 635 mmHg 42%
    19:00 +1°C° 0 mm 0 mps 635 mmHg 42%
    20:00 +1°C° 0 mm 0 mps 635 mmHg 42%
    21:00 +1°C° 0 mm 0 mps 635 mmHg 42%
    22:00 +1°C° 0 mm 0 mps 635 mmHg 42%
    23:00 0°C° 0 mm 0 mps 635 mmHg 42%

    Day after tomorrow, 22 January, Tuesday

    Time Temperature Precipitation Wind Pressure Humidity
    00:00 0°C° 0 mm 0 mps 635 mmHg 42%
    01:00 0°C° 0 mm 0 mps 634 mmHg 43%
    02:00 0°C° 0 mm 0 mps 634 mmHg 43%
    03:00 0°C° 0 mm 0 mps 634 mmHg 43%
    04:00 0°C° 0 mm 0 mps 634 mmHg 44%
    05:00 -1°C° 0 mm 0 mps 634 mmHg 45%
    06:00 -1°C° 0 mm 0 mps 634 mmHg 46%
    07:00 0°C° 0 mm 0 mps 634 mmHg 44%
    08:00 +3°C° 0 mm 1 mps 635 mmHg 42%
    09:00 +4°C° 0 mm 1 mps 636 mmHg 40%
    10:00 +5°C° 0 mm 1 mps 636 mmHg 36%
    11:00 +6°C° 0 mm 1 mps 636 mmHg 33%
    12:00 +6°C° 0 mm 2 mps 636 mmHg 29%
    13:00 +6°C° 0 mm 2 mps 635 mmHg 29%
    14:00 +6°C° 0 mm 2 mps 635 mmHg 28%
    15:00 +7°C° 0 mm 2 mps 635 mmHg 28%
    16:00 +5°C° 0 mm 2 mps 635 mmHg 32%
    17:00 +5°C° 0 mm 1 mps 635 mmHg 36%
    18:00 +3°C° 0 mm 1 mps 634 mmHg 40%
    19:00 +3°C° 0 mm 1 mps 635 mmHg 41%
    20:00 +3°C° 0 mm 1 mps 635 mmHg 43%
    21:00 +2°C° 0 mm 1 mps 635 mmHg 44%
    22:00 +2°C° 0 mm 1 mps 635 mmHg 45%
    23:00 +2°C° 0 mm 1 mps 635 mmHg 46%

    23 January, Wednesday

    Time Temperature Precipitation Wind Pressure Humidity
    00:00 0°C° 0 mm 0 mps 635 mmHg 47%
    01:00 0°C° 0 mm 0 mps 635 mmHg 47%
    02:00 0°C° 0 mm 0 mps 635 mmHg 47%
    03:00 0°C° 0 mm 0 mps 635 mmHg 48%
    04:00 0°C° 0 mm 0 mps 635 mmHg 48%
    05:00 0°C° 0 mm 0 mps 635 mmHg 48%
    06:00 0°C° 0 mm 0 mps 635 mmHg 48%
    07:00 +1°C° 0 mm 0 mps 636 mmHg 45%
    08:00 +2°C° 0 mm 0 mps 636 mmHg 42%
    09:00 +3°C° 0 mm 0 mps 637 mmHg 39%
    10:00 +4°C° 0 mm 0 mps 637 mmHg 38%
    11:00 +5°C° 0 mm 0 mps 637 mmHg 38%
    12:00 +7°C° 0 mm 1 mps 637 mmHg 38%
    13:00 +7°C° 0 mm 1 mps 637 mmHg 37%
    14:00 +8°C° 0 mm 1 mps 637 mmHg 37%
    15:00 +8°C° 0 mm 1 mps 637 mmHg 37%
    16:00 +7°C° 0 mm 1 mps 636 mmHg 41%
    17:00 +6°C° 0 mm 1 mps 636 mmHg 46%
    18:00 +3°C° 0 mm 0 mps 636 mmHg 51%
    19:00 +3°C° 0 mm 0 mps 636 mmHg 52%
    20:00 +2°C° 0 mm 0 mps 636 mmHg 54%
    21:00 +2°C° 0 mm 0 mps 637 mmHg 55%
    22:00 +2°C° 0 mm 0 mps 637 mmHg 56%
    23:00 +1°C° 0 mm 0 mps 637 mmHg 57%

    24 January, Thursday

    Time Temperature Precipitation Wind Pressure Humidity
    00:00 +1°C° 0 mm 0 mps 637 mmHg 58%
    01:00 +1°C° 0 mm 0 mps 637 mmHg 58%
    02:00 +1°C° 0 mm 0 mps 637 mmHg 59%
    03:00 +1°C° 0 mm 0 mps 637 mmHg 59%
    04:00 +1°C° 0 mm 0 mps 637 mmHg 60%
    05:00 0°C° 0 mm 0 mps 637 mmHg 60%
    06:00 0°C° 0 mm 0 mps 637 mmHg 60%
    07:00 +2°C° 0 mm 0 mps 638 mmHg 56%
    08:00 +3°C° 0 mm 0 mps 638 mmHg 51%
    09:00 +5°C° 0 mm 1 mps 639 mmHg 46%
    10:00 +6°C° 0 mm 1 mps 639 mmHg 42%
    11:00 +7°C° 0 mm 1 mps 639 mmHg 38%
    12:00 +8°C° 0 mm 1 mps 639 mmHg 33%
    13:00 +9°C° 0 mm 1 mps 639 mmHg 32%
    14:00 +9°C° 0 mm 1 mps 638 mmHg 31%
    15:00 +10°C° 0 mm 1 mps 638 mmHg 29%
    16:00 +8°C° 0 mm 1 mps 638 mmHg 33%
    17:00 +6°C° 0 mm 0 mps 637 mmHg 38%
    18:00 +5°C° 0 mm 0 mps 637 mmHg 42%
    19:00 +4°C° 0 mm 0 mps 637 mmHg 43%
    20:00 +5°C° 0 mm 1 mps 637 mmHg 43%
    21:00 +5°C° 0 mm 1 mps 637 mmHg 44%
    22:00 +4°C° 0 mm 1 mps 637 mmHg 44%
    23:00 +4°C° 0 mm 1 mps 637 mmHg 45%

    25 January, Friday

    Time Temperature Precipitation Wind Pressure Humidity
    00:00 +4°C° 0 mm 1 mps 637 mmHg 45%
    01:00 +4°C° 0 mm 1 mps 637 mmHg 46%
    02:00 +3°C° 0 mm 1 mps 636 mmHg 47%
    03:00 +3°C° 0 mm 1 mps 636 mmHg 48%
    04:00 +3°C° 0 mm 1 mps 636 mmHg 48%
    05:00 +3°C° 0 mm 1 mps 636 mmHg 48%
    06:00 +3°C° 0 mm 1 mps 636 mmHg 47%
    07:00 +4°C° 0 mm 1 mps 636 mmHg 43%
    08:00 +5°C° 0 mm 1 mps 637 mmHg 40%
    09:00 +7°C° 0 mm 1 mps 638 mmHg 36%
    10:00 +7°C° 0 mm 2 mps 638 mmHg 33%
    11:00 +9°C° 0 mm 2 mps 638 mmHg 30%
    12:00 +10°C° 0 mm 2 mps 638 mmHg 27%
    13:00 +10°C° 0 mm 2 mps 638 mmHg 28%
    14:00 +11°C° 0 mm 3 mps 637 mmHg 28%
    15:00 +11°C° 0 mm 3 mps 637 mmHg 29%
    16:00 +10°C° 0 mm 2 mps 637 mmHg 32%
    17:00 +9°C° 0 mm 2 mps 636 mmHg 36%
    18:00 +7°C° 0 mm 2 mps 636 mmHg 40%
    19:00 +7°C° 0 mm 2 mps 636 mmHg 41%
    20:00 +6°C° 0 mm 2 mps 636 mmHg 42%
    21:00 +6°C° 0 mm 2 mps 636 mmHg 43%
    22:00 +5°C° 0 mm 2 mps 636 mmHg 45%
    23:00 +5°C° 0 mm 2 mps 636 mmHg 46%
    Show more